TimeCST,TemperatureF,Dew PointF,Humidity,Sea Level PressureIn,VisibilityMPH,Wind Direction,Wind SpeedMPH,Gust SpeedMPH,PrecipitationIn,Events,Conditions,WindDirDegrees,DateUTC
12:15 AM,39.2,38.5,97,29.87,1.0,Calm,Calm,-,N/A,,Overcast,0,2012-11-07 06:15:00
12:35 AM,39.2,38.7,98,29.88,1.0,Calm,Calm,-,N/A,,Overcast,0,2012-11-07 06:35:00
12:55 AM,39.4,38.8,98,29.88,1.0,East,4.6,-,N/A,,Overcast,100,2012-11-07 06:55:00
1:15 AM,39.4,38.8,98,29.88,1.0,East,4.6,-,N/A,,Overcast,100,2012-11-07 07:15:00
1:35 AM,39.4,38.7,97,29.88,1.2,East,3.5,-,N/A,,Overcast,100,2012-11-07 07:35:00
1:55 AM,39.4,38.7,97,29.89,1.2,East,3.5,-,N/A,,Overcast,100,2012-11-07 07:55:00
2:15 AM,39.4,38.7,97,29.89,1.2,East,5.8,-,N/A,,Overcast,90,2012-11-07 08:15:00
2:35 AM,39.4,38.5,97,29.89,1.5,ENE,4.6,-,N/A,,Overcast,70,2012-11-07 08:35:00
2:55 AM,39.4,38.5,97,29.89,1.2,East,6.9,-,N/A,,Overcast,80,2012-11-07 08:55:00
3:15 AM,39.2,38.5,97,29.90,1.2,ENE,5.8,-,N/A,,Overcast,70,2012-11-07 09:15:00
3:35 AM,39.4,38.7,97,29.90,1.2,ENE,3.5,-,N/A,,Overcast,70,2012-11-07 09:35:00
3:55 AM,39.2,38.3,97,29.91,1.5,ENE,3.5,-,N/A,,Overcast,60,2012-11-07 09:55:00
4:15 AM,39.4,38.3,96,29.92,1.5,ENE,4.6,-,N/A,,Overcast,60,2012-11-07 10:15:00
4:35 AM,39.4,38.3,96,29.93,1.5,ENE,4.6,-,N/A,,Overcast,60,2012-11-07 10:35:00
7:15 AM,39.6,38.5,96,29.99,1.8,NE,5.8,-,N/A,,Overcast,40,2012-11-07 13:15:00
7:35 AM,39.7,38.3,95,30.01,2.0,NE,6.9,-,N/A,,Overcast,40,2012-11-07 13:35:00
7:55 AM,40.1,38.7,95,30.02,2.0,NE,3.5,-,N/A,,Overcast,50,2012-11-07 13:55:00
8:15 AM,40.3,38.5,93,30.03,2.5,Calm,Calm,-,N/A,,Overcast,0,2012-11-07 14:15:00
8:35 AM,40.6,38.5,92,30.03,3.0,Calm,Calm,-,N/A,,Overcast,0,2012-11-07 14:35:00
8:55 AM,40.8,37.6,88,30.04,4.0,Calm,Calm,-,N/A,,Scattered Clouds,0,2012-11-07 14:55:00
9:15 AM,41.0,37.2,86,30.04,5.0,Calm,Calm,-,N/A,,Scattered Clouds,0,2012-11-07 15:15:00
9:35 AM,41.9,37.8,85,30.05,5.0,ENE,3.5,-,N/A,,Mostly Cloudy,60,2012-11-07 15:35:00
9:55 AM,42.8,38.1,84,30.06,7.0,East,3.5,-,N/A,,Mostly Cloudy,80,2012-11-07 15:55:00
10:15 AM,42.8,37.4,81,30.07,7.0,Calm,Calm,-,N/A,,Scattered Clouds,0,2012-11-07 16:15:00
10:35 AM,43.0,37.2,80,30.07,7.0,Calm,Calm,-,N/A,,Mostly Cloudy,0,2012-11-07 16:35:00
10:55 AM,43.9,38.1,80,30.07,7.0,North,3.5,-,N/A,,Scattered Clouds,360,2012-11-07 16:55:00
11:15 AM,43.7,37.9,80,30.07,7.0,Calm,Calm,-,N/A,,Clear,0,2012-11-07 17:15:00
11:35 AM,44.2,38.5,80,30.07,7.0,Calm,Calm,-,N/A,,Clear,0,2012-11-07 17:35:00
11:55 AM,44.1,37.9,79,30.07,7.0,NNW,4.6,-,N/A,,Scattered Clouds,330,2012-11-07 17:55:00
12:15 PM,44.8,38.5,79,30.07,7.0,Calm,Calm,-,N/A,,Scattered Clouds,0,2012-11-07 18:15:00
12:35 PM,44.8,38.5,79,30.06,7.0,NW,3.5,-,N/A,,Clear,320,2012-11-07 18:35:00
12:55 PM,45.0,37.8,76,30.06,7.0,NNW,4.6,-,N/A,,Clear,330,2012-11-07 18:55:00
1:15 PM,45.5,37.9,75,30.06,7.0,Calm,Calm,-,N/A,,Scattered Clouds,0,2012-11-07 19:15:00
1:35 PM,45.5,38.8,78,30.06,7.0,West,3.5,-,N/A,,Scattered Clouds,280,2012-11-07 19:35:00
1:55 PM,45.1,37.6,75,30.07,7.0,Calm,Calm,-,N/A,,Scattered Clouds,0,2012-11-07 19:55:00
2:15 PM,45.1,37.6,75,30.08,7.0,Calm,Calm,-,N/A,,Scattered Clouds,0,2012-11-07 20:15:00
2:35 PM,45.3,39.0,79,30.08,5.0,West,5.8,-,N/A,,Haze,280,2012-11-07 20:35:00
2:55 PM,44.6,39.2,81,30.09,4.0,WNW,4.6,-,N/A,,Haze,300,2012-11-07 20:55:00
3:15 PM,44.4,39.4,82,30.09,4.0,WNW,4.6,-,N/A,,Haze,290,2012-11-07 21:15:00
3:35 PM,44.2,39.2,82,30.09,4.0,NW,4.6,-,N/A,,Haze,310,2012-11-07 21:35:00
3:55 PM,44.2,39.2,82,30.09,4.0,Calm,Calm,-,N/A,,Haze,0,2012-11-07 21:55:00
4:15 PM,44.2,39.2,82,30.10,4.0,Calm,Calm,-,N/A,,Haze,0,2012-11-07 22:15:00
4:35 PM,44.1,39.2,83,30.10,4.0,Calm,Calm,-,N/A,,Haze,0,2012-11-07 22:35:00
4:55 PM,43.9,39.0,83,30.11,4.0,Calm,Calm,-,N/A,,Haze,0,2012-11-07 22:55:00
5:15 PM,43.9,39.2,84,30.11,4.0,Calm,Calm,-,N/A,,Haze,0,2012-11-07 23:15:00
5:35 PM,43.7,39.2,84,30.12,4.0,Calm,Calm,-,N/A,,Haze,0,2012-11-07 23:35:00
5:55 PM,43.9,39.2,84,30.12,4.0,Calm,Calm,-,N/A,,Haze,0,2012-11-07 23:55:00
6:15 PM,43.7,39.6,85,30.13,4.0,Calm,Calm,-,N/A,,Scattered Clouds,0,2012-11-08 00:15:00
6:35 PM,43.5,40.1,88,30.14,3.0,Calm,Calm,-,N/A,,Mist,0,2012-11-08 00:35:00
6:55 PM,43.2,40.1,89,30.14,3.0,Calm,Calm,-,N/A,,Mist,0,2012-11-08 00:55:00
7:15 PM,43.2,40.1,89,30.13,3.0,Calm,Calm,-,N/A,,Mist,0,2012-11-08 01:15:00
7:35 PM,43.0,40.1,90,30.14,3.0,Calm,Calm,-,N/A,,Mist,0,2012-11-08 01:35:00
7:55 PM,42.8,40.1,90,30.14,3.0,Calm,Calm,-,N/A,,Mist,0,2012-11-08 01:55:00
8:15 PM,42.8,40.1,90,30.15,2.5,Calm,Calm,-,N/A,,Mist,0,2012-11-08 02:15:00
8:35 PM,42.8,40.1,90,30.15,3.0,Calm,Calm,-,N/A,,Mist,0,2012-11-08 02:35:00
8:55 PM,42.8,39.9,90,30.16,3.0,Calm,Calm,-,N/A,,Mist,0,2012-11-08 02:55:00
9:15 PM,42.8,40.1,90,30.16,3.0,Calm,Calm,-,N/A,,Mist,0,2012-11-08 03:15:00
9:35 PM,42.8,40.1,90,30.15,2.5,Calm,Calm,-,N/A,,Mist,0,2012-11-08 03:35:00
9:55 PM,42.3,39.9,91,30.15,2.5,Calm,Calm,-,N/A,,Mist,0,2012-11-08 03:55:00
10:15 PM,42.3,40.1,92,30.16,2.5,Calm,Calm,-,N/A,,Mist,0,2012-11-08 04:15:00
10:35 PM,42.3,39.7,91,30.16,2.5,Calm,Calm,-,N/A,,Mist,0,2012-11-08 04:35:00
10:55 PM,41.9,39.7,92,30.16,2.5,Calm,Calm,-,N/A,,Mist,0,2012-11-08 04:55:00
11:15 PM,41.9,39.7,92,30.16,2.5,Calm,Calm,-,N/A,,Mist,0,2012-11-08 05:15:00
11:35 PM,41.0,39.2,93,30.16,2.0,WSW,3.5,-,N/A,,Mist,240,2012-11-08 05:35:00
11:55 PM,41.4,39.6,93,30.16,2.0,Calm,Calm,-,N/A,,Mist,0,2012-11-08 05:55:00